| time (UTC) | temp C | wind direction | speed KPH | gust KPH | rain 1hr cm | rain 24hr cm | rain mn cm | humidity % | barometer mb |
| 20260502194617 | 21 | 241 | 8.0 | 19.3 | 0.00 | 0.00 | 0.00 | 8 | 1018.1 |
| 20260502194523 | 21 | 193 | 0.0 | 22.5 | 0.00 | 0.00 | 0.00 | 9 | 1018.3 |
| 20260502194117 | 22 | 280 | 9.7 | 19.3 | 0.00 | 0.00 | 0.00 | 11 | 1018.1 |
| 20260502194039 | 21 | 254 | 3.2 | 19.3 | 0.00 | 0.00 | 0.00 | 9 | 1018.6 |
| 20260502193617 | 21 | 275 | 8.0 | 19.3 | 0.00 | 0.00 | 0.00 | 10 | 1018.4 |
| 20260502193558 | 21 | 273 | 12.9 | 19.3 | 0.00 | 0.00 | 0.00 | 10 | 1018.5 |
| 20260502193117 | 21 | 250 | 8.0 | 17.7 | 0.00 | 0.00 | 0.00 | 12 | 1018.4 |
| 20260502192617 | 21 | 220 | 12.9 | 24.1 | 0.00 | 0.00 | 0.00 | 9 | 1018.4 |
| 20260502192511 | 21 | 239 | 9.7 | 24.1 | 0.00 | 0.00 | 0.00 | 8 | 1018.7 |
| 20260502192117 | 21 | 197 | 12.9 | 24.1 | 0.00 | 0.00 | 0.00 | 11 | 1018.8 |
| 20260502192030 | 21 | 213 | 11.3 | 24.1 | 0.00 | 0.00 | 0.00 | 13 | 1018.8 |
| 20260502191617 | 21 | 181 | 12.9 | 30.6 | 0.00 | 0.00 | 0.00 | 11 | 1018.8 |
| 20260502191552 | 20 | 204 | 6.4 | 30.6 | 0.00 | 0.00 | 0.00 | 10 | 1018.8 |
| 20260502191117 | 21 | 203 | 12.9 | 30.6 | 0.00 | 0.00 | 0.00 | 10 | 1018.8 |
| 20260502191108 | 20 | 110 | 14.5 | 30.6 | 0.00 | 0.00 | 0.00 | 11 | 1018.9 |
| 20260502190617 | 21 | 261 | 8.0 | 24.1 | 0.00 | 0.00 | 0.00 | 11 | 1018.6 |
| 20260502190138 | 20 | 281 | 4.8 | 25.7 | 0.00 | 0.00 | 0.00 | 14 | 1018.6 |
| 20260502190026 | 20 | 59 | 3.2 | 12.9 | 0.00 | 0.00 | 0.00 | 12 | 1018.8 |
| 20260502185617 | 20 | 155 | 8.0 | 25.7 | 0.00 | 0.00 | 0.00 | 11 | 1018.8 |
| 20260502185117 | 20 | 155 | 9.7 | 24.1 | 0.00 | 0.00 | 0.00 | 13 | 1019.0 |
| 20260502185005 | 20 | 128 | 11.3 | 25.7 | 0.00 | 0.00 | 0.00 | 13 | 1019.1 |
| 20260502184617 | 20 | 135 | 9.7 | 24.1 | 0.00 | 0.00 | 0.00 | 11 | 1019.0 |
| 20260502184523 | 20 | 165 | 17.7 | 22.5 | 0.00 | 0.00 | 0.00 | 10 | 1019.1 |
| 20260502184117 | 20 | 129 | 14.5 | 27.4 | 0.00 | 0.00 | 0.00 | 12 | 1019.0 |
| 20260502184037 | 20 | 128 | 11.3 | 22.5 | 0.00 | 0.00 | 0.00 | 11 | 1019.3 |
| 20260502183617 | 20 | 120 | 16.1 | 29.0 | 0.00 | 0.00 | 0.00 | 13 | 1019.2 |
| 20260502183559 | 20 | 120 | 14.5 | 29.0 | 0.00 | 0.00 | 0.00 | 11 | 1019.5 |
| 20260502183138 | 20 | 109 | 14.5 | 29.0 | 0.00 | 0.00 | 0.00 | 12 | 1019.2 |
| 20260502183008 | 20 | 108 | 20.9 | 29.0 | 0.00 | 0.00 | 0.00 | 13 | 1019.1 |
| 20260502182617 | 20 | 118 | 14.5 | 24.1 | 0.00 | 0.00 | 0.00 | 13 | 1019.2 |
| 20260502182525 | 20 | 137 | 11.3 | 24.1 | 0.00 | 0.00 | 0.00 | 13 | 1019.5 |
| 20260502182117 | 20 | 122 | 16.1 | 24.1 | 0.00 | 0.00 | 0.00 | 12 | 1019.2 |
| 20260502182046 | 20 | 130 | 19.3 | 27.4 | 0.00 | 0.00 | 0.00 | 13 | 1019.5 |
| 20260502181617 | 20 | 114 | 16.1 | 27.4 | 0.00 | 0.00 | 0.00 | 12 | 1019.2 |
| 20260502181117 | 20 | 110 | 14.5 | 27.4 | 0.00 | 0.00 | 0.00 | 13 | 1019.4 |
| 20260502181055 | 20 | 101 | 16.1 | 27.4 | 0.00 | 0.00 | 0.00 | 13 | 1019.5 |
| 20260502180617 | 20 | 124 | 11.3 | 22.5 | 0.00 | 0.00 | 0.00 | 16 | 1019.6 |
| 20260502180505 | 20 | 74 | 16.1 | 22.5 | 0.00 | 0.00 | 0.00 | 15 | 1019.6 |
| 20260502180117 | 20 | 144 | 9.7 | 19.3 | 0.00 | 0.00 | 0.00 | 14 | 1019.6 |
| 20260502170506 | 18 | 258 | 0.0 | 11.3 | 0.00 | 0.00 | 0.00 | 24 | 1020.1 |
| 20260502170117 | 18 | 286 | 6.4 | 11.3 | 0.00 | 0.00 | 0.00 | 25 | 1019.7 |
| 20260502164117 | 17 | 285 | 9.7 | 14.5 | 0.00 | 0.00 | 0.00 | 28 | 1019.8 |
| 20260502164055 | 17 | 297 | 6.4 | 14.5 | 0.00 | 0.00 | 0.00 | 28 | 1020.1 |
| 20260502163617 | 17 | 284 | 8.0 | 14.5 | 0.00 | 0.00 | 0.00 | 28 | 1019.8 |
| 20260502163507 | 17 | 305 | 4.8 | 14.5 | 0.00 | 0.00 | 0.00 | 28 | 1020.1 |
| 20260502163117 | 17 | 285 | 9.7 | 16.1 | 0.00 | 0.00 | 0.00 | 27 | 1019.9 |
| 20260502162617 | 17 | 288 | 11.3 | 16.1 | 0.00 | 0.00 | 0.00 | 26 | 1019.9 |
| 20260502162523 | 17 | 300 | 6.4 | 16.1 | 0.00 | 0.00 | 0.00 | 26 | 1020.3 |
| 20260502162117 | 17 | 289 | 8.0 | 16.1 | 0.00 | 0.00 | 0.00 | 26 | 1019.9 |
| 20260502162044 | 17 | 291 | 8.0 | 16.1 | 0.00 | 0.00 | 0.00 | 26 | 1020.4 |
| 20260502161617 | 17 | 249 | 4.8 | 16.1 | 0.00 | 0.00 | 0.00 | 25 | 1019.9 |
| 20260502161605 | 17 | 302 | 11.3 | 16.1 | 0.00 | 0.00 | 0.00 | 26 | 1020.4 |
| 20260502161117 | 17 | 185 | 4.8 | 14.5 | 0.00 | 0.00 | 0.00 | 20 | 1019.9 |
| 20260502161012 | 17 | 121 | 4.8 | 12.9 | 0.00 | 0.00 | 0.00 | 23 | 1020.1 |
| 20260502160617 | 17 | 277 | 4.8 | 14.5 | 0.00 | 0.00 | 0.00 | 26 | 1019.9 |
| 20260502160532 | 17 | 153 | 3.2 | 11.3 | 0.00 | 0.00 | 0.00 | 24 | 1020.1 |
| 20260502160117 | 17 | 262 | 4.8 | 11.3 | 0.00 | 0.00 | 0.00 | 26 | 1019.9 |
| 20260502152117 | 15 | 107 | 14.5 | 20.9 | 0.00 | 0.00 | 0.00 | 22 | 1019.9 |
| 20260502152044 | 15 | 80 | 17.7 | 20.9 | 0.00 | 0.00 | 0.00 | 22 | 1020.2 |
| 20260502151617 | 15 | 113 | 14.5 | 20.9 | 0.00 | 0.00 | 0.00 | 21 | 1019.9 |
| 20260502151606 | 15 | 100 | 16.1 | 20.9 | 0.00 | 0.00 | 0.00 | 21 | 1020.3 |
| 20260502151117 | 15 | 117 | 14.5 | 22.5 | 0.00 | 0.00 | 0.00 | 22 | 1019.7 |
| 20260502151055 | 15 | 132 | 12.9 | 22.5 | 0.00 | 0.00 | 0.00 | 22 | 1020.3 |
| 20260502150617 | 15 | 116 | 16.1 | 22.5 | 0.00 | 0.00 | 0.00 | 20 | 1019.7 |
| 20260502150505 | 15 | 105 | 16.1 | 22.5 | 0.00 | 0.00 | 0.00 | 21 | 1020.2 |
| 20260502150138 | 15 | 115 | 16.1 | 24.1 | 0.00 | 0.00 | 0.00 | 22 | 1019.8 |
| 20260502130617 | 8 | 72 | 8.0 | 17.7 | 0.00 | 0.00 | 0.00 | 34 | 1019.7 |
| 20260502130510 | 8 | 67 | 6.4 | 14.5 | 0.00 | 0.00 | 0.00 | 34 | 1020.0 |
| 20260502130117 | 8 | 70 | 9.7 | 17.7 | 0.00 | 0.00 | 0.00 | 34 | 1019.7 |
| 20260502123617 | 7 | 72 | 9.7 | 19.3 | 0.00 | 0.00 | 0.00 | 35 | 1019.5 |
| 20260502123558 | 7 | 87 | 17.7 | 19.3 | 0.00 | 0.00 | 0.00 | 35 | 1020.1 |
| 20260502123117 | 7 | 69 | 6.4 | 17.7 | 0.00 | 0.00 | 0.00 | 36 | 1019.5 |
| 20260502123008 | 7 | 82 | 8.0 | 11.3 | 0.00 | 0.00 | 0.00 | 36 | 1020.1 |
| 20260502122617 | 7 | 71 | 6.4 | 12.9 | 0.00 | 0.00 | 0.00 | 37 | 1019.5 |
| 20260502122526 | 6 | 55 | 6.4 | 9.7 | 0.00 | 0.00 | 0.00 | 37 | 1019.9 |
| 20260502122117 | 6 | 74 | 4.8 | 9.7 | 0.00 | 0.00 | 0.00 | 37 | 1019.5 |
| 20260502121638 | 6 | 76 | 3.2 | 9.7 | 0.00 | 0.00 | 0.00 | 37 | 1019.7 |
| 20260502121551 | 6 | 69 | 3.2 | 9.7 | 0.00 | 0.00 | 0.00 | 37 | 1020.0 |
| 20260502121117 | 7 | 158 | 0.0 | 3.2 | 0.00 | 0.00 | 0.00 | 37 | 1019.7 |
| 20260502121108 | 6 | 158 | 1.6 | 3.2 | 0.00 | 0.00 | 0.00 | 37 | 1020.0 |
| 20260502120617 | 7 | 158 | 1.6 | 3.2 | 0.00 | 0.00 | 0.00 | 36 | 1019.7 |
| 20260502120117 | 7 | 158 | 1.6 | 3.2 | 0.00 | 0.00 | 0.00 | 37 | 1019.7 |
| 20260502115638 | 7 | 148 | 1.6 | 4.8 | 0.00 | 0.00 | 0.00 | 36 | 1019.7 |
| 20260502115607 | 7 | 158 | 3.2 | 4.8 | 0.00 | 0.00 | 0.00 | 37 | 1019.9 |
| 20260502115117 | 7 | 79 | 4.8 | 9.7 | 0.00 | 0.00 | 0.00 | 37 | 1019.7 |
| 20260502115018 | 7 | 158 | 1.6 | 9.7 | 0.00 | 0.00 | 0.00 | 37 | 1019.8 |
| 20260502114617 | 7 | 62 | 6.4 | 12.9 | 0.00 | 0.00 | 0.00 | 35 | 1019.7 |
| 20260502114117 | 7 | 65 | 6.4 | 12.9 | 0.00 | 0.00 | 0.00 | 35 | 1019.6 |
| 20260502114009 | 7 | 45 | 3.2 | 12.9 | 0.00 | 0.00 | 0.00 | 35 | 1019.9 |
| 20260502113617 | 7 | 65 | 8.0 | 16.1 | 0.00 | 0.00 | 0.00 | 36 | 1019.6 |
| 20260502113530 | 7 | 65 | 6.4 | 16.1 | 0.00 | 0.00 | 0.00 | 36 | 1020.0 |
| 20260502113117 | 7 | 65 | 8.0 | 16.1 | 0.00 | 0.00 | 0.00 | 37 | 1019.6 |
| 20260502113050 | 7 | 57 | 4.8 | 16.1 | 0.00 | 0.00 | 0.00 | 37 | 1019.9 |
| 20260502112617 | 7 | 69 | 6.4 | 14.5 | 0.00 | 0.00 | 0.00 | 37 | 1019.6 |
| 20260502112458 | 6 | 67 | 9.7 | 14.5 | 0.00 | 0.00 | 0.00 | 37 | 1019.9 |
| 20260502112117 | 7 | 57 | 4.8 | 8.0 | 0.00 | 0.00 | 0.00 | 37 | 1019.8 |
| 20260502112017 | 6 | 69 | 6.4 | 9.7 | 0.00 | 0.00 | 0.00 | 37 | 1020.1 |
| 20260502111617 | 6 | 43 | 6.4 | 14.5 | 0.00 | 0.00 | 0.00 | 38 | 1019.8 |
| 20260502111538 | 6 | 62 | 3.2 | 14.5 | 0.00 | 0.00 | 0.00 | 38 | 1020.0 |
| 20260502111117 | 6 | 48 | 8.0 | 14.5 | 0.00 | 0.00 | 0.00 | 38 | 1019.8 |
| 20260502111056 | 6 | 45 | 9.7 | 14.5 | 0.00 | 0.00 | 0.00 | 38 | 1019.9 |
| 20260502110638 | 6 | 65 | 6.4 | 11.3 | 0.00 | 0.00 | 0.00 | 38 | 1019.6 |
| 20260502110506 | 6 | 52 | 6.4 | 9.7 | 0.00 | 0.00 | 0.00 | 38 | 1019.9 |
| 20260502110117 | 6 | 82 | 4.8 | 8.0 | 0.00 | 0.00 | 0.00 | 37 | 1019.6 |
| 20260502110025 | 6 | 71 | 3.2 | 6.4 | 0.00 | 0.00 | 0.00 | 37 | 1019.9 |
| 20260502105638 | 6 | 93 | 3.2 | 6.4 | 0.00 | 0.00 | 0.00 | 37 | 1019.6 |
| 20260502105533 | 6 | 82 | 4.8 | 6.4 | 0.00 | 0.00 | 0.00 | 37 | 1019.9 |
| 20260502105117 | 6 | 98 | 3.2 | 4.8 | 0.00 | 0.00 | 0.00 | 37 | 1019.7 |
| 20260502105053 | 6 | 99 | 3.2 | 4.8 | 0.00 | 0.00 | 0.00 | 37 | 1020.0 |
| 20260502104617 | 6 | 98 | 3.2 | 3.2 | 0.00 | 0.00 | 0.00 | 38 | 1019.7 |
| 20260502104117 | 6 | 98 | 1.6 | 3.2 | 0.00 | 0.00 | 0.00 | 39 | 1019.7 |
| 20260502104106 | 6 | 98 | 1.6 | 3.2 | 0.00 | 0.00 | 0.00 | 39 | 1020.0 |
| 20260502103617 | 6 | 98 | 1.6 | 4.8 | 0.00 | 0.00 | 0.00 | 39 | 1019.7 |
| 20260502103510 | 6 | 98 | 0.0 | 4.8 | 0.00 | 0.00 | 0.00 | 38 | 1020.1 |
| 20260502103117 | 6 | 98 | 1.6 | 4.8 | 0.00 | 0.00 | 0.00 | 39 | 1019.7 |
| 20260502102617 | 6 | 98 | 1.6 | 4.8 | 0.00 | 0.00 | 0.00 | 39 | 1019.6 |
| 20260502102522 | 5 | 98 | 1.6 | 4.8 | 0.00 | 0.00 | 0.00 | 39 | 1019.9 |
| 20260502102117 | 6 | 97 | 1.6 | 4.8 | 0.00 | 0.00 | 0.00 | 39 | 1019.7 |
| 20260502102042 | 5 | 98 | 1.6 | 4.8 | 0.00 | 0.00 | 0.00 | 39 | 1019.9 |
| 20260502101617 | 6 | 92 | 1.6 | 4.8 | 0.00 | 0.00 | 0.00 | 39 | 1019.7 |
| 20260502101603 | 5 | 98 | 0.0 | 4.8 | 0.00 | 0.00 | 0.00 | 39 | 1020.0 |
| 20260502101117 | 5 | 99 | 3.2 | 4.8 | 0.00 | 0.00 | 0.00 | 39 | 1019.7 |
| 20260502101011 | 5 | 92 | 1.6 | 4.8 | 0.00 | 0.00 | 0.00 | 39 | 1019.9 |
| 20260502100617 | 5 | 124 | 1.6 | 4.8 | 0.00 | 0.00 | 0.00 | 39 | 1019.6 |
| 20260502100530 | 5 | 108 | 3.2 | 4.8 | 0.00 | 0.00 | 0.00 | 39 | 1020.0 |
| 20260502100117 | 5 | 181 | 0.0 | 3.2 | 0.00 | 0.00 | 0.00 | 40 | 1019.7 |
| 20260502091117 | 7 | 183 | 1.6 | 3.2 | 0.00 | 0.00 | 0.00 | 35 | 1019.7 |
| 20260502091007 | 7 | 188 | 1.6 | 3.2 | 0.00 | 0.00 | 0.00 | 35 | 1020.0 |
| 20260502090638 | 7 | 198 | 3.2 | 4.8 | 0.00 | 0.00 | 0.00 | 35 | 1019.5 |
| 20260502090527 | 7 | 182 | 1.6 | 4.8 | 0.00 | 0.00 | 0.00 | 35 | 1020.0 |
| 20260502090117 | 7 | 221 | 1.6 | 4.8 | 0.00 | 0.00 | 0.00 | 34 | 1019.5 |
| 20260502071117 | 11 | 100 | 12.9 | 17.7 | 0.00 | 0.00 | 0.00 | 22 | 1019.4 |
| 20260502071005 | 11 | 100 | 9.7 | 17.7 | 0.00 | 0.00 | 0.00 | 22 | 1019.6 |
| 20260502070617 | 11 | 101 | 12.9 | 17.7 | 0.00 | 0.00 | 0.00 | 24 | 1019.4 |
| 20260502070525 | 11 | 101 | 11.3 | 17.7 | 0.00 | 0.00 | 0.00 | 24 | 1019.7 |
| 20260502070138 | 10 | 100 | 9.7 | 17.7 | 0.00 | 0.00 | 0.00 | 26 | 1019.3 |
| 20260502065617 | 10 | 83 | 6.4 | 12.9 | 0.00 | 0.00 | 0.00 | 27 | 1019.4 |
| 20260502065138 | 10 | 67 | 8.0 | 12.9 | 0.00 | 0.00 | 0.00 | 27 | 1019.4 |
| 20260502065008 | 10 | 64 | 4.8 | 11.3 | 0.00 | 0.00 | 0.00 | 27 | 1019.8 |
| 20260502064617 | 10 | 67 | 9.7 | 16.1 | 0.00 | 0.00 | 0.00 | 27 | 1019.3 |
| 20260502064117 | 11 | 72 | 11.3 | 16.1 | 0.00 | 0.00 | 0.00 | 26 | 1019.3 |
| 20260502064029 | 10 | 59 | 4.8 | 16.1 | 0.00 | 0.00 | 0.00 | 26 | 1019.6 |
| 20260502063617 | 11 | 88 | 11.3 | 16.1 | 0.00 | 0.00 | 0.00 | 25 | 1019.3 |
| 20260502063550 | 11 | 75 | 12.9 | 16.1 | 0.00 | 0.00 | 0.00 | 25 | 1019.7 |
| 20260502063117 | 11 | 97 | 12.9 | 14.5 | 0.00 | 0.00 | 0.00 | 25 | 1019.4 |
| 20260502063003 | 10 | 87 | 8.0 | 14.5 | 0.00 | 0.00 | 0.00 | 25 | 1019.7 |
| 20260502062617 | 10 | 98 | 11.3 | 14.5 | 0.00 | 0.00 | 0.00 | 26 | 1019.4 |
| 20260502062117 | 10 | 94 | 8.0 | 14.5 | 0.00 | 0.00 | 0.00 | 26 | 1019.4 |
| 20260502062019 | 10 | 101 | 11.3 | 12.9 | 0.00 | 0.00 | 0.00 | 26 | 1019.6 |
| 20260502061617 | 10 | 85 | 4.8 | 12.9 | 0.00 | 0.00 | 0.00 | 26 | 1019.4 |
| 20260502061540 | 10 | 90 | 6.4 | 9.7 | 0.00 | 0.00 | 0.00 | 26 | 1019.7 |
| 20260502061117 | 10 | 87 | 4.8 | 12.9 | 0.00 | 0.00 | 0.00 | 25 | 1019.4 |
| 20260502061057 | 10 | 69 | 3.2 | 6.4 | 0.00 | 0.00 | 0.00 | 25 | 1019.6 |
| 20260502060638 | 10 | 87 | 4.8 | 12.9 | 0.00 | 0.00 | 0.00 | 25 | 1019.4 |
| 20260502060507 | 10 | 101 | 4.8 | 8.0 | 0.00 | 0.00 | 0.00 | 25 | 1019.7 |
| 20260502060117 | 10 | 75 | 6.4 | 11.3 | 0.00 | 0.00 | 0.00 | 25 | 1019.4 |
| 20260502060028 | 10 | 77 | 4.8 | 12.9 | 0.00 | 0.00 | 0.00 | 24 | 1019.8 |
| 20260502055617 | 11 | 72 | 8.0 | 12.9 | 0.00 | 0.00 | 0.00 | 24 | 1019.5 |
| 20260502055504 | 10 | 61 | 8.0 | 12.9 | 0.00 | 0.00 | 0.00 | 24 | 1019.9 |
| 20260502055117 | 11 | 76 | 8.0 | 12.9 | 0.00 | 0.00 | 0.00 | 24 | 1019.5 |
| 20260502055025 | 10 | 85 | 4.8 | 12.9 | 0.00 | 0.00 | 0.00 | 24 | 1019.7 |
| 20260502054617 | 11 | 82 | 8.0 | 12.9 | 0.00 | 0.00 | 0.00 | 24 | 1019.3 |
| 20260502054544 | 10 | 82 | 6.4 | 12.9 | 0.00 | 0.00 | 0.00 | 24 | 1019.6 |
| 20260502054117 | 11 | 88 | 8.0 | 12.9 | 0.00 | 0.00 | 0.00 | 23 | 1019.3 |
| 20260502054059 | 10 | 80 | 6.4 | 12.9 | 0.00 | 0.00 | 0.00 | 23 | 1019.5 |
| 20260502053617 | 11 | 97 | 6.4 | 11.3 | 0.00 | 0.00 | 0.00 | 24 | 1019.3 |
| 20260502053509 | 11 | 96 | 9.7 | 11.3 | 0.00 | 0.00 | 0.00 | 24 | 1019.6 |
| 20260502053117 | 11 | 94 | 8.0 | 16.1 | 0.00 | 0.00 | 0.00 | 24 | 1019.4 |
| 20260502053027 | 11 | 90 | 6.4 | 16.1 | 0.00 | 0.00 | 0.00 | 24 | 1019.8 |
| 20260502052638 | 11 | 87 | 11.3 | 16.1 | 0.00 | 0.00 | 0.00 | 24 | 1019.4 |
| 20260502052546 | 11 | 96 | 6.4 | 16.1 | 0.00 | 0.00 | 0.00 | 24 | 1019.8 |
| 20260502052117 | 11 | 80 | 11.3 | 14.5 | 0.00 | 0.00 | 0.00 | 23 | 1019.4 |
| 20260502051617 | 11 | 79 | 8.0 | 14.5 | 0.00 | 0.00 | 0.00 | 24 | 1019.5 |
| 20260502051606 | 11 | 95 | 12.9 | 14.5 | 0.00 | 0.00 | 0.00 | 24 | 1019.8 |
| 20260502051117 | 11 | 91 | 8.0 | 14.5 | 0.00 | 0.00 | 0.00 | 23 | 1019.5 |
| 20260502051012 | 11 | 80 | 11.3 | 12.9 | 0.00 | 0.00 | 0.00 | 23 | 1019.8 |
| 20260502050638 | 11 | 106 | 6.4 | 11.3 | 0.00 | 0.00 | 0.00 | 22 | 1019.5 |
| 20260502050533 | 11 | 100 | 9.7 | 9.7 | 0.00 | 0.00 | 0.00 | 23 | 1019.9 |
| 20260502050117 | 11 | 111 | 6.4 | 11.3 | 0.00 | 0.00 | 0.00 | 23 | 1019.5 |
| 20260502045638 | 11 | 106 | 6.4 | 11.3 | 0.00 | 0.00 | 0.00 | 24 | 1019.5 |
| 20260502045525 | 11 | 109 | 6.4 | 11.3 | 0.00 | 0.00 | 0.00 | 23 | 1019.9 |
| 20260502045117 | 11 | 98 | 4.8 | 11.3 | 0.00 | 0.00 | 0.00 | 23 | 1019.5 |
| 20260502045043 | 11 | 101 | 3.2 | 9.7 | 0.00 | 0.00 | 0.00 | 23 | 1019.9 |
| 20260502044617 | 11 | 88 | 4.8 | 11.3 | 0.00 | 0.00 | 0.00 | 24 | 1019.5 |
| 20260502044117 | 11 | 79 | 6.4 | 11.3 | 0.00 | 0.00 | 0.00 | 23 | 1019.5 |
| 20260502043617 | 11 | 80 | 8.0 | 12.9 | 0.00 | 0.00 | 0.00 | 23 | 1019.5 |
| 20260502043601 | 11 | 94 | 6.4 | 12.9 | 0.00 | 0.00 | 0.00 | 23 | 1019.9 |
| 20260502043117 | 11 | 79 | 9.7 | 17.7 | 0.00 | 0.00 | 0.00 | 23 | 1019.5 |
| 20260502043010 | 11 | 70 | 8.0 | 17.7 | 0.00 | 0.00 | 0.00 | 23 | 1019.8 |
| 20260502042638 | 11 | 81 | 11.3 | 17.7 | 0.00 | 0.00 | 0.00 | 23 | 1019.4 |
| 20260502042514 | 11 | 75 | 11.3 | 17.7 | 0.00 | 0.00 | 0.00 | 23 | 1019.9 |
| 20260502042117 | 11 | 84 | 9.7 | 17.7 | 0.00 | 0.00 | 0.00 | 23 | 1019.4 |
| 20260502042035 | 11 | 80 | 11.3 | 16.1 | 0.00 | 0.00 | 0.00 | 23 | 1019.8 |
| 20260502041617 | 11 | 83 | 8.0 | 12.9 | 0.00 | 0.00 | 0.00 | 22 | 1019.4 |
| 20260502041555 | 11 | 80 | 8.0 | 12.9 | 0.00 | 0.00 | 0.00 | 23 | 1019.8 |
| 20260502041117 | 11 | 82 | 8.0 | 12.9 | 0.00 | 0.00 | 0.00 | 21 | 1019.3 |
| 20260502041000 | 11 | 74 | 4.8 | 12.9 | 0.00 | 0.00 | 0.00 | 22 | 1019.7 |
| 20260502040617 | 11 | 77 | 9.7 | 14.5 | 0.00 | 0.00 | 0.00 | 21 | 1019.3 |
| 20260502040117 | 11 | 76 | 9.7 | 14.5 | 0.00 | 0.00 | 0.00 | 20 | 1019.3 |
| 20260502040028 | 11 | 74 | 8.0 | 14.5 | 0.00 | 0.00 | 0.00 | 20 | 1019.7 |
| 20260502035617 | 11 | 76 | 9.7 | 12.9 | 0.00 | 0.00 | 0.00 | 20 | 1019.4 |
| 20260502035502 | 11 | 80 | 12.9 | 12.9 | 0.00 | 0.00 | 0.00 | 20 | 1019.6 |
| 20260502035117 | 11 | 77 | 9.7 | 14.5 | 0.00 | 0.00 | 0.00 | 20 | 1019.4 |
| 20260502034617 | 11 | 78 | 11.3 | 14.5 | 0.00 | 0.00 | 0.00 | 19 | 1019.4 |
| 20260502034117 | 11 | 75 | 9.7 | 14.5 | 0.00 | 0.00 | 0.00 | 19 | 1019.2 |
| 20260502034020 | 11 | 76 | 6.4 | 14.5 | 0.00 | 0.00 | 0.00 | 18 | 1019.4 |
| 20260502033638 | 11 | 73 | 9.7 | 14.5 | 0.00 | 0.00 | 0.00 | 18 | 1019.2 |
| 20260502033538 | 11 | 76 | 8.0 | 14.5 | 0.00 | 0.00 | 0.00 | 18 | 1019.5 |
| 20260502033138 | 11 | 73 | 9.7 | 14.5 | 0.00 | 0.00 | 0.00 | 19 | 1019.2 |
| 20260502033058 | 11 | 78 | 8.0 | 14.5 | 0.00 | 0.00 | 0.00 | 18 | 1019.6 |
| 20260502032617 | 12 | 75 | 9.7 | 14.5 | 0.00 | 0.00 | 0.00 | 18 | 1019.2 |
| 20260502032502 | 11 | 77 | 11.3 | 14.5 | 0.00 | 0.00 | 0.00 | 18 | 1019.5 |
| 20260502032117 | 12 | 75 | 8.0 | 14.5 | 0.00 | 0.00 | 0.00 | 18 | 1019.2 |
| 20260502032022 | 11 | 82 | 11.3 | 14.5 | 0.00 | 0.00 | 0.00 | 18 | 1019.5 |
| 20260502031617 | 12 | 75 | 8.0 | 12.9 | 0.00 | 0.00 | 0.00 | 18 | 1019.2 |
| 20260502031543 | 12 | 74 | 8.0 | 12.9 | 0.00 | 0.00 | 0.00 | 18 | 1019.3 |
| 20260502031117 | 12 | 75 | 8.0 | 12.9 | 0.00 | 0.00 | 0.00 | 18 | 1019.0 |
| 20260502031057 | 12 | 78 | 8.0 | 12.9 | 0.00 | 0.00 | 0.00 | 18 | 1019.4 |
| 20260502030617 | 12 | 74 | 8.0 | 12.9 | 0.00 | 0.00 | 0.00 | 18 | 1019.0 |
| 20260502030507 | 12 | 64 | 9.7 | 12.9 | 0.00 | 0.00 | 0.00 | 18 | 1019.4 |
| 20260502030138 | 12 | 77 | 6.4 | 11.3 | 0.00 | 0.00 | 0.00 | 18 | 1019.0 |
| 20260502030021 | 12 | 74 | 8.0 | 9.7 | 0.00 | 0.00 | 0.00 | 18 | 1019.3 |
| 20260502025617 | 12 | 76 | 6.4 | 11.3 | 0.00 | 0.00 | 0.00 | 18 | 1019.0 |
| 20260502025530 | 12 | 79 | 6.4 | 11.3 | 0.00 | 0.00 | 0.00 | 18 | 1019.3 |
| 20260502025138 | 13 | 72 | 6.4 | 11.3 | 0.00 | 0.00 | 0.00 | 18 | 1019.0 |
| 20260502025049 | 12 | 75 | 6.4 | 11.3 | 0.00 | 0.00 | 0.00 | 17 | 1019.4 |
| 20260502024638 | 13 | 68 | 6.4 | 11.3 | 0.00 | 0.00 | 0.00 | 18 | 1019.0 |
| 20260502024502 | 13 | 82 | 8.0 | 9.7 | 0.00 | 0.00 | 0.00 | 17 | 1019.2 |
| 20260502024117 | 14 | 62 | 3.2 | 8.0 | 0.00 | 0.00 | 0.00 | 16 | 1018.8 |
| 20260502024013 | 13 | 65 | 6.4 | 6.4 | 0.00 | 0.00 | 0.00 | 16 | 1019.2 |
| 20260502023617 | 14 | 49 | 1.6 | 4.8 | 0.00 | 0.00 | 0.00 | 16 | 1018.8 |
| 20260502023532 | 14 | 70 | 3.2 | 4.8 | 0.00 | 0.00 | 0.00 | 15 | 1019.1 |
| 20260502023117 | 15 | 307 | 0.0 | 3.2 | 0.00 | 0.00 | 0.00 | 16 | 1018.8 |
| 20260502023053 | 15 | 316 | 0.0 | 3.2 | 0.00 | 0.00 | 0.00 | 16 | 1019.3 |
| 20260502022617 | 15 | 294 | 0.0 | 3.2 | 0.00 | 0.00 | 0.00 | 14 | 1019.0 |
| 20260502022117 | 15 | 294 | 0.0 | 3.2 | 0.00 | 0.00 | 0.00 | 12 | 1019.0 |
| 20260502021617 | 15 | 294 | 1.6 | 3.2 | 0.00 | 0.00 | 0.00 | 12 | 1018.9 |
| 20260502021610 | 15 | 294 | 1.6 | 3.2 | 0.00 | 0.00 | 0.00 | 12 | 1019.3 |
| 20260502021138 | 16 | 297 | 1.6 | 4.8 | 0.00 | 0.00 | 0.00 | 13 | 1018.9 |
| 20260502021014 | 15 | 294 | 0.0 | 4.8 | 0.00 | 0.00 | 0.00 | 13 | 1019.4 |
| 20260502020617 | 16 | 301 | 3.2 | 4.8 | 0.00 | 0.00 | 0.00 | 13 | 1019.0 |
| 20260502020532 | 16 | 294 | 3.2 | 4.8 | 0.00 | 0.00 | 0.00 | 13 | 1019.4 |
| 20260502020117 | 16 | 295 | 3.2 | 8.0 | 0.00 | 0.00 | 0.00 | 12 | 1019.0 |
| 20260502015638 | 16 | 285 | 4.8 | 9.7 | 0.00 | 0.00 | 0.00 | 11 | 1019.1 |
| 20260502015514 | 16 | 286 | 4.8 | 8.0 | 0.00 | 0.00 | 0.00 | 10 | 1019.4 |
| 20260502015117 | 17 | 287 | 6.4 | 12.9 | 0.00 | 0.00 | 0.00 | 10 | 1018.9 |
| 20260502015034 | 16 | 290 | 6.4 | 12.9 | 0.00 | 0.00 | 0.00 | 9 | 1019.3 |
| 20260502014617 | 17 | 285 | 6.4 | 12.9 | 0.00 | 0.00 | 0.00 | 11 | 1018.9 |
| 20260502014138 | 17 | 282 | 6.4 | 12.9 | 0.00 | 0.00 | 0.00 | 9 | 1018.9 |
| 20260502013617 | 18 | 293 | 6.4 | 12.9 | 0.00 | 0.00 | 0.00 | 9 | 1018.9 |
| 20260502013557 | 17 | 273 | 6.4 | 12.9 | 0.00 | 0.00 | 0.00 | 9 | 1019.1 |
| 20260502013138 | 18 | 300 | 6.4 | 14.5 | 0.00 | 0.00 | 0.00 | 11 | 1018.9 |
| 20260502013054 | 18 | 319 | 4.8 | 14.5 | 0.00 | 0.00 | 0.00 | 10 | 1019.1 |
| 20260502012617 | 18 | 304 | 8.0 | 16.1 | 0.00 | 0.00 | 0.00 | 11 | 1018.9 |
| 20260502012501 | 18 | 295 | 3.2 | 16.1 | 0.00 | 0.00 | 0.00 | 10 | 1019.2 |
| 20260502012117 | 18 | 298 | 9.7 | 16.1 | 0.00 | 0.00 | 0.00 | 10 | 1019.0 |
| 20260502012019 | 18 | 309 | 8.0 | 16.1 | 0.00 | 0.00 | 0.00 | 10 | 1019.2 |
| 20260502011617 | 18 | 288 | 9.7 | 16.1 | 0.00 | 0.00 | 0.00 | 11 | 1019.0 |
| 20260502011541 | 18 | 303 | 11.3 | 16.1 | 0.00 | 0.00 | 0.00 | 10 | 1019.2 |
| 20260502011117 | 18 | 291 | 11.3 | 17.7 | 0.00 | 0.00 | 0.00 | 9 | 1019.0 |
| 20260502011059 | 18 | 302 | 8.0 | 17.7 | 0.00 | 0.00 | 0.00 | 9 | 1019.2 |
| 20260502010617 | 19 | 301 | 11.3 | 17.7 | 0.00 | 0.00 | 0.00 | 8 | 1018.9 |
| 20260502010506 | 18 | 305 | 12.9 | 17.7 | 0.00 | 0.00 | 0.00 | 8 | 1019.3 |
| 20260502010117 | 19 | 300 | 9.7 | 17.7 | 0.00 | 0.00 | 0.00 | 10 | 1018.9 |
| 20260502010027 | 19 | 303 | 11.3 | 17.7 | 0.00 | 0.00 | 0.00 | 10 | 1019.3 |
| 20260502005638 | 19 | 300 | 9.7 | 16.1 | 0.00 | 0.00 | 0.00 | 9 | 1019.0 |
| 20260502005117 | 19 | 310 | 9.7 | 20.9 | 0.00 | 0.00 | 0.00 | 10 | 1019.0 |
| 20260502005053 | 19 | 278 | 11.3 | 20.9 | 0.00 | 0.00 | 0.00 | 12 | 1019.2 |
| 20260502004617 | 20 | 308 | 11.3 | 20.9 | 0.00 | 0.00 | 0.00 | 12 | 1019.0 |
| 20260502004504 | 19 | 291 | 11.3 | 19.3 | 0.00 | 0.00 | 0.00 | 11 | 1019.3 |
| 20260502004117 | 19 | 312 | 9.7 | 16.1 | 0.00 | 0.00 | 0.00 | 11 | 1019.0 |
| 20260502004020 | 19 | 300 | 12.9 | 19.3 | 0.00 | 0.00 | 0.00 | 10 | 1019.1 |
| 20260502003617 | 19 | 312 | 11.3 | 20.9 | 0.00 | 0.00 | 0.00 | 11 | 1019.0 |
| 20260502003536 | 19 | 300 | 4.8 | 20.9 | 0.00 | 0.00 | 0.00 | 11 | 1019.3 |
| 20260502003117 | 20 | 310 | 12.9 | 20.9 | 0.00 | 0.00 | 0.00 | 10 | 1019.0 |
| 20260502003057 | 19 | 298 | 12.9 | 20.9 | 0.00 | 0.00 | 0.00 | 10 | 1019.3 |
| 20260502002638 | 20 | 322 | 11.3 | 19.3 | 0.00 | 0.00 | 0.00 | 11 | 1019.0 |
| 20260502002502 | 19 | 283 | 12.9 | 19.3 | 0.00 | 0.00 | 0.00 | 12 | 1019.3 |
| 20260502002117 | 20 | 315 | 12.9 | 20.9 | 0.00 | 0.00 | 0.00 | 11 | 1019.0 |
| 20260502002022 | 19 | 329 | 16.1 | 20.9 | 0.00 | 0.00 | 0.00 | 11 | 1019.5 |
| 20260502001617 | 20 | 302 | 11.3 | 20.9 | 0.00 | 0.00 | 0.00 | 12 | 1019.0 |
| 20260502001541 | 19 | 325 | 9.7 | 20.9 | 0.00 | 0.00 | 0.00 | 12 | 1019.3 |
| 20260502001117 | 20 | 311 | 12.9 | 20.9 | 0.00 | 0.00 | 0.00 | 11 | 1019.0 |
| 20260502001059 | 20 | 267 | 12.9 | 20.9 | 0.00 | 0.00 | 0.00 | 11 | 1019.3 |
| 20260502000638 | 20 | 311 | 12.9 | 22.5 | 0.00 | 0.00 | 0.00 | 12 | 1018.8 |
| 20260502000506 | 20 | 326 | 9.7 | 22.5 | 0.00 | 0.00 | 0.00 | 13 | 1019.4 |
| 20260502000117 | 20 | 317 | 12.9 | 22.5 | 0.00 | 0.00 | 0.00 | 11 | 1018.8 |
| 20260502000027 | 20 | 304 | 11.3 | 22.5 | 0.00 | 0.00 | 0.00 | 11 | 1019.2 |
| 20260501235617 | 20 | 317 | 11.3 | 20.9 | 0.00 | 0.00 | 0.00 | 13 | 1018.9 |
| 20260501235552 | 20 | 327 | 14.5 | 20.9 | 0.00 | 0.00 | 0.00 | 13 | 1019.2 |
| 20260501235117 | 20 | 310 | 9.7 | 19.3 | 0.00 | 0.00 | 0.00 | 11 | 1019.0 |
| 20260501234958 | 20 | 292 | 11.3 | 19.3 | 0.00 | 0.00 | 0.00 | 11 | 1019.3 |
| 20260501234617 | 20 | 311 | 9.7 | 19.3 | 0.00 | 0.00 | 0.00 | 12 | 1019.0 |
| 20260501234521 | 20 | 299 | 12.9 | 19.3 | 0.00 | 0.00 | 0.00 | 12 | 1019.3 |
| 20260501234117 | 20 | 312 | 9.7 | 19.3 | 0.00 | 0.00 | 0.00 | 12 | 1019.0 |
| 20260501234036 | 20 | 284 | 11.3 | 19.3 | 0.00 | 0.00 | 0.00 | 13 | 1019.4 |
| 20260501233617 | 20 | 297 | 9.7 | 19.3 | 0.00 | 0.00 | 0.00 | 14 | 1019.0 |
| 20260501233554 | 20 | 24 | 3.2 | 19.3 | 0.00 | 0.00 | 0.00 | 14 | 1019.3 |
| 20260501233117 | 20 | 281 | 9.7 | 19.3 | 0.00 | 0.00 | 0.00 | 12 | 1019.0 |
| 20260501233005 | 19 | 294 | 12.9 | 19.3 | 0.00 | 0.00 | 0.00 | 13 | 1019.3 |
| 20260501232617 | 20 | 290 | 11.3 | 20.9 | 0.00 | 0.00 | 0.00 | 12 | 1019.0 |
| 20260501232117 | 20 | 308 | 9.7 | 20.9 | 0.00 | 0.00 | 0.00 | 12 | 1019.0 |
| 20260501232029 | 20 | 296 | 17.7 | 20.9 | 0.00 | 0.00 | 0.00 | 14 | 1019.2 |
| 20260501231617 | 20 | 329 | 9.7 | 19.3 | 0.00 | 0.00 | 0.00 | 15 | 1019.0 |
| 20260501231550 | 20 | 294 | 6.4 | 19.3 | 0.00 | 0.00 | 0.00 | 14 | 1019.3 |
| 20260501231117 | 20 | 324 | 9.7 | 19.3 | 0.00 | 0.00 | 0.00 | 15 | 1019.0 |
| 20260501231106 | 20 | 5 | 8.0 | 19.3 | 0.00 | 0.00 | 0.00 | 15 | 1019.3 |
| 20260501230638 | 20 | 325 | 8.0 | 16.1 | 0.00 | 0.00 | 0.00 | 15 | 1019.0 |
| 20260501230515 | 20 | 312 | 8.0 | 16.1 | 0.00 | 0.00 | 0.00 | 16 | 1019.4 |
| 20260501230117 | 20 | 318 | 6.4 | 14.5 | 0.00 | 0.00 | 0.00 | 15 | 1019.2 |
| 20260501230033 | 19 | 355 | 3.2 | 14.5 | 0.00 | 0.00 | 0.00 | 14 | 1019.4 |
| 20260501225617 | 20 | 306 | 8.0 | 22.5 | 0.00 | 0.00 | 0.00 | 14 | 1019.3 |
| 20260501225500 | 19 | 275 | 9.7 | 19.3 | 0.00 | 0.00 | 0.00 | 14 | 1019.6 |
| 20260501225117 | 19 | 295 | 9.7 | 22.5 | 0.00 | 0.00 | 0.00 | 16 | 1019.3 |
| 20260501225018 | 19 | 311 | 3.2 | 22.5 | 0.00 | 0.00 | 0.00 | 17 | 1019.6 |
| 20260501224638 | 19 | 290 | 11.3 | 22.5 | 0.00 | 0.00 | 0.00 | 14 | 1019.2 |
| 20260501224538 | 18 | 302 | 17.7 | 22.5 | 0.00 | 0.00 | 0.00 | 15 | 1019.6 |
| 20260501224117 | 19 | 282 | 11.3 | 22.5 | 0.00 | 0.00 | 0.00 | 15 | 1019.2 |
| 20260501224041 | 18 | 319 | 6.4 | 22.5 | 0.00 | 0.00 | 0.00 | 14 | 1019.6 |
| 20260501223617 | 19 | 259 | 11.3 | 20.9 | 0.00 | 0.00 | 0.00 | 16 | 1019.2 |
| 20260501223559 | 18 | 256 | 4.8 | 20.9 | 0.00 | 0.00 | 0.00 | 15 | 1019.5 |
| 20260501223117 | 19 | 273 | 12.9 | 22.5 | 0.00 | 0.00 | 0.00 | 16 | 1019.5 |
| 20260501223009 | 19 | 244 | 12.9 | 22.5 | 0.00 | 0.00 | 0.00 | 17 | 1019.6 |
| 20260501222617 | 19 | 286 | 11.3 | 22.5 | 0.00 | 0.00 | 0.00 | 16 | 1019.5 |
| 20260501222526 | 19 | 325 | 17.7 | 22.5 | 0.00 | 0.00 | 0.00 | 16 | 1019.8 |
| 20260501222117 | 19 | 275 | 8.0 | 27.4 | 0.00 | 0.00 | 0.00 | 17 | 1019.5 |
| 20260501222045 | 19 | 209 | 8.0 | 27.4 | 0.00 | 0.00 | 0.00 | 17 | 1019.8 |
| 20260501221617 | 19 | 245 | 6.4 | 27.4 | 0.00 | 0.00 | 0.00 | 15 | 1019.5 |
| 20260501221601 | 19 | 342 | 25.7 | 27.4 | 0.00 | 0.00 | 0.00 | 15 | 1019.8 |
| 20260501221117 | 19 | 251 | 8.0 | 17.7 | 0.00 | 0.00 | 0.00 | 18 | 1019.5 |
| 20260501221010 | 18 | 256 | 4.8 | 17.7 | 0.00 | 0.00 | 0.00 | 19 | 1019.8 |
| 20260501220617 | 18 | 279 | 11.3 | 17.7 | 0.00 | 0.00 | 0.00 | 17 | 1019.5 |
| 20260501220527 | 18 | 225 | 8.0 | 17.7 | 0.00 | 0.00 | 0.00 | 16 | 1019.9 |
| 20260501220044 | 18 | 288 | 8.0 | 17.7 | 0.00 | 0.00 | 0.00 | 19 | 1019.9 |
| 20260501215117 | 18 | 259 | 11.3 | 24.1 | 0.00 | 0.00 | 0.00 | 17 | 1020.0 |
| 20260501215056 | 18 | 233 | 11.3 | 19.3 | 0.00 | 0.00 | 0.00 | 17 | 1020.1 |
| 20260501214617 | 18 | 243 | 11.3 | 22.5 | 0.00 | 0.00 | 0.00 | 17 | 1020.2 |
| 20260501214506 | 18 | 227 | 12.9 | 24.1 | 0.00 | 0.00 | 0.00 | 17 | 1020.1 |
| 20260501214117 | 18 | 246 | 9.7 | 22.5 | 0.00 | 0.00 | 0.00 | 17 | 1020.2 |
| 20260501214022 | 18 | 234 | 16.1 | 19.3 | 0.00 | 0.00 | 0.00 | 19 | 1020.1 |
| 20260501213617 | 18 | 262 | 9.7 | 19.3 | 0.00 | 0.00 | 0.00 | 19 | 1020.2 |
| 20260501213539 | 18 | 249 | 6.4 | 19.3 | 0.00 | 0.00 | 0.00 | 20 | 1020.3 |
| 20260501213117 | 18 | 264 | 11.3 | 19.3 | 0.00 | 0.00 | 0.00 | 19 | 1020.2 |
| 20260501213046 | 18 | 257 | 14.5 | 19.3 | 0.00 | 0.00 | 0.00 | 18 | 1020.4 |
| 20260501212617 | 18 | 259 | 8.0 | 19.3 | 0.00 | 0.00 | 0.00 | 18 | 1020.2 |
| 20260501212600 | 18 | 275 | 4.8 | 19.3 | 0.00 | 0.00 | 0.00 | 18 | 1020.6 |
| 20260501212117 | 18 | 18 | 8.0 | 19.3 | 0.00 | 0.00 | 0.00 | 18 | 1020.2 |
| 20260501212011 | 18 | 221 | 6.4 | 17.7 | 0.00 | 0.00 | 0.00 | 18 | 1020.5 |
| 20260501211617 | 18 | 347 | 11.3 | 22.5 | 0.00 | 0.00 | 0.00 | 17 | 1020.2 |
| 20260501211528 | 18 | 73 | 6.4 | 22.5 | 0.00 | 0.00 | 0.00 | 17 | 1020.6 |
| 20260501211117 | 19 | 339 | 11.3 | 22.5 | 0.00 | 0.00 | 0.00 | 18 | 1020.2 |
| 20260501211106 | 18 | 28 | 3.2 | 22.5 | 0.00 | 0.00 | 0.00 | 18 | 1020.5 |
| 20260501210617 | 18 | 344 | 8.0 | 19.3 | 0.00 | 0.00 | 0.00 | 20 | 1020.2 |
| 20260501210138 | 18 | 329 | 9.7 | 22.5 | 0.00 | 0.00 | 0.00 | 21 | 1020.3 |
| 20260501205638 | 18 | 316 | 8.0 | 22.5 | 0.00 | 0.00 | 0.00 | 20 | 1020.3 |
| 20260501205511 | 18 | 347 | 8.0 | 22.5 | 0.00 | 0.00 | 0.00 | 19 | 1020.5 |
| 20260501205117 | 18 | 319 | 6.4 | 20.9 | 0.00 | 0.00 | 0.00 | 21 | 1020.3 |
| 20260501205029 | 18 | 278 | 9.7 | 20.9 | 0.00 | 0.00 | 0.00 | 20 | 1020.6 |
| 20260501204617 | 18 | 303 | 9.7 | 20.9 | 0.00 | 0.00 | 0.00 | 21 | 1020.3 |
| 20260501204549 | 18 | 309 | 16.1 | 20.9 | 0.00 | 0.00 | 0.00 | 21 | 1020.7 |
| 20260501204117 | 18 | 302 | 9.7 | 17.7 | 0.00 | 0.00 | 0.00 | 21 | 1020.3 |
| 20260501203959 | 18 | 310 | 6.4 | 17.7 | 0.00 | 0.00 | 0.00 | 19 | 1020.7 |
| 20260501203617 | 18 | 307 | 9.7 | 17.7 | 0.00 | 0.00 | 0.00 | 24 | 1020.3 |
| 20260501203514 | 18 | 331 | 14.5 | 17.7 | 0.00 | 0.00 | 0.00 | 23 | 1020.8 |
| 20260501203117 | 18 | 314 | 8.0 | 17.7 | 0.00 | 0.00 | 0.00 | 21 | 1020.5 |
| 20260501203036 | 18 | 283 | 9.7 | 17.7 | 0.00 | 0.00 | 0.00 | 21 | 1020.8 |
| 20260501202638 | 18 | 315 | 9.7 | 16.1 | 0.00 | 0.00 | 0.00 | 18 | 1020.5 |
| 20260501202551 | 18 | 297 | 4.8 | 16.1 | 0.00 | 0.00 | 0.00 | 20 | 1020.8 |
| 20260501202117 | 18 | 314 | 9.7 | 22.5 | 0.00 | 0.00 | 0.00 | 24 | 1020.5 |
| 20260501202004 | 17 | 281 | 11.3 | 22.5 | 0.00 | 0.00 | 0.00 | 21 | 1020.8 |
| 20260501201617 | 18 | 322 | 9.7 | 22.5 | 0.00 | 0.00 | 0.00 | 21 | 1020.5 |
| 20260501201524 | 17 | 321 | 4.8 | 22.5 | 0.00 | 0.00 | 0.00 | 22 | 1020.8 |
| 20260501201117 | 17 | 317 | 9.7 | 19.3 | 0.00 | 0.00 | 0.00 | 24 | 1020.6 |
| 20260501201020 | 17 | 321 | 14.5 | 19.3 | 0.00 | 0.00 | 0.00 | 21 | 1020.8 |
| 20260501200617 | 17 | 316 | 6.4 | 19.3 | 0.00 | 0.00 | 0.00 | 21 | 1020.6 |
| 20260501200540 | 17 | 304 | 8.0 | 19.3 | 0.00 | 0.00 | 0.00 | 22 | 1021.0 |
| 20260501200117 | 17 | 342 | 8.0 | 19.3 | 0.00 | 0.00 | 0.00 | 21 | 1020.6 |
| 20260501195617 | 17 | 343 | 9.7 | 19.3 | 0.00 | 0.00 | 0.00 | 23 | 1020.7 |
| 20260501195557 | 17 | 15 | 8.0 | 19.3 | 0.00 | 0.00 | 0.00 | 23 | 1021.0 |
| 20260501195117 | 17 | 327 | 8.0 | 19.3 | 0.00 | 0.00 | 0.00 | 23 | 1020.7 |
| 20260501195005 | 17 | 38 | 1.6 | 19.3 | 0.00 | 0.00 | 0.00 | 24 | 1021.1 |